TimeCEST,TemperatureF,Dew PointF,Humidity,Sea Level PressureIn,VisibilityMPH,Wind Direction,Wind SpeedMPH,Gust SpeedMPH,PrecipitationIn,Events,Conditions,WindDirDegrees,DateUTC
1:55 AM,39.2,33.8,81,30.18,6.2,North,10.4,-,N/A,,Partly Cloudy,350,2013-06-29 23:55:00
2:00 AM,38,33,77,,6,North,10.4,,,,Scattered Clouds,350,2013-06-30 00:00:00
4:55 AM,39.2,32.0,75,30.18,6.2,North,9.2,-,N/A,,Partly Cloudy,360,2013-06-30 02:55:00
5:00 AM,38,31,68,,9,North,9.2,,,,Scattered Clouds,0,2013-06-30 03:00:00
5:55 AM,39.2,30.2,70,30.18,6.2,NNW,6.9,-,N/A,,Partly Cloudy,330,2013-06-30 03:55:00
6:55 AM,37.4,30.2,75,30.18,6.2,North,8.1,-,N/A,,Partly Cloudy,350,2013-06-30 04:55:00
7:55 AM,41.0,30.2,65,30.21,6.2,NNW,8.1,-,N/A,,Partly Cloudy,340,2013-06-30 05:55:00
8:00 AM,41,30,53,,47,NNW,8.1,,,,Scattered Clouds,340,2013-06-30 06:00:00
8:55 AM,42.8,26.6,53,30.24,-9999.0,NNE,9.2,-,N/A,,Clear,20,2013-06-30 06:55:00
9:55 AM,44.6,26.6,49,30.24,-9999.0,North,8.1,-,N/A,,Clear,360,2013-06-30 07:55:00
10:55 AM,46.4,24.8,43,30.24,-9999.0,North,5.8,-,N/A,,Clear,350,2013-06-30 08:55:00
11:00 AM,46,25,31,,47,North,5.8,,,,Clear,350,2013-06-30 09:00:00
11:55 AM,48.2,23.0,37,30.24,-9999.0,NW,4.6,-,N/A,,Clear,310,2013-06-30 09:55:00
12:55 PM,50.0,26.6,40,30.24,-9999.0,WNW,8.1,-,N/A,,Clear,290,2013-06-30 10:55:00
1:55 PM,50.0,24.8,37,30.24,6.2,West,9.2,-,N/A,,Partly Cloudy,270,2013-06-30 11:55:00
2:00 PM,51,25,24,,47,West,9.2,,,,Scattered Clouds,270,2013-06-30 12:00:00
2:55 PM,51.8,28.4,41,30.24,6.2,West,8.1,-,N/A,,Scattered Clouds,280,2013-06-30 12:55:00
3:55 PM,53.6,26.6,35,30.24,6.2,NW,4.6,-,N/A,,Scattered Clouds,320,2013-06-30 13:55:00
4:55 PM,53.6,35.6,51,30.24,6.2,South,10.4,-,N/A,,Scattered Clouds,170,2013-06-30 14:55:00
5:00 PM,53,35,38,,34,South,10.4,,,,Partly Cloudy,170,2013-06-30 15:00:00
5:55 PM,53.6,37.4,54,30.24,6.2,ESE,6.9,-,N/A,,Mostly Cloudy,120,2013-06-30 15:55:00
6:55 PM,51.8,41.0,67,30.24,6.2,SE,16.1,-,N/A,,Mostly Cloudy,130,2013-06-30 16:55:00
7:55 PM,48.2,42.8,82,30.24,6.2,SE,11.5,-,N/A,,Mostly Cloudy,130,2013-06-30 17:55:00
8:00 PM,49,43,71,,12,SE,11.5,,,,Mostly Cloudy,130,2013-06-30 18:00:00
10:55 PM,44.6,42.8,93,30.27,6.2,ESE,4.6,-,N/A,,Mostly Cloudy,120,2013-06-30 20:55:00
11:00 PM,44,43,95,,7,ESE,4.6,,,,Mostly Cloudy,120,2013-06-30 21:00:00